Location: Usti nad Orlici
(49.9830°N, 16.4000°E)
Time: 04:25:07
(UTC+02:00)

ISS - Pass Details

Date: 24 March 2019
Orbit: 408 x 410 km, 51.6° (Epoch: 21 April)

Event Time Altitude Azimuth Distance (km) Brightness Sun altitude
Rises 21:04:03 0° 265° (W) 2,334 0.7 -26.1°
Reaches altitude 10° 21:06:08 10° 268° (W) 1,473 -0.4 -26.4°
Enters shadow 21:07:09 18° 271° (W) 1,071 -1.2 -26.5°
